Location: Newark
(48.4472°N, 1.4892°E)
Time: 04:47:56
(UTC+00:00)

Transit 4A - Pass Details

Date: 29 November 2019
Orbit: 870 x 975 km, 66.8° (Epoch: 14 December)

Event Time Altitude Azimuth Distance (km) Brightness Sun altitude
Exits shadow 03:27:24 29° 106° (ESE) 1,538 9.4 -38.0°
Drops below altitude 10° 03:30:23 10° 122° (ESE) 2,517 10.6 -37.5°
Sets 03:32:55 0° 128° (SE) 3,449 11.4 -37.1°
